TimeMST,TemperatureF,Dew PointF,Humidity,Sea Level PressureIn,VisibilityMPH,Wind Direction,Wind SpeedMPH,Gust SpeedMPH,PrecipitationIn,Events,Conditions,WindDirDegrees,DateUTC
12:51 AM,55.0,27.0,34,30.03,10.0,Calm,Calm,-,N/A,,Mostly Cloudy,0,2012-12-22 07:51:00
1:51 AM,54.0,28.0,37,30.02,10.0,Calm,Calm,-,N/A,,Mostly Cloudy,0,2012-12-22 08:51:00
2:51 AM,53.6,28.4,38,30.05,10.0,ESE,5.8,-,N/A,,Mostly Cloudy,110,2012-12-22 09:51:00
3:51 AM,52.0,30.9,45,30.01,10.0,ESE,4.6,-,N/A,,Mostly Cloudy,120,2012-12-22 10:51:00
4:51 AM,54.0,27.0,35,30.02,10.0,SE,3.5,-,N/A,,Mostly Cloudy,130,2012-12-22 11:51:00
5:51 AM,55.9,25.0,30,30.02,10.0,ESE,6.9,-,N/A,,Mostly Cloudy,120,2012-12-22 12:51:00
6:51 AM,53.1,30.0,41,30.04,10.0,East,6.9,-,N/A,,Mostly Cloudy,80,2012-12-22 13:51:00
7:51 AM,53.1,30.0,41,30.05,10.0,East,3.5,-,N/A,,Mostly Cloudy,80,2012-12-22 14:51:00
8:51 AM,55.0,30.9,40,30.07,10.0,ESE,4.6,-,N/A,,Scattered Clouds,110,2012-12-22 15:51:00
9:51 AM,60.1,27.0,28,30.09,10.0,ESE,3.5,-,N/A,,Scattered Clouds,120,2012-12-22 16:51:00
10:51 AM,64.0,26.1,24,30.09,10.0,East,5.8,-,N/A,,Scattered Clouds,100,2012-12-22 17:51:00
11:51 AM,66.9,24.1,20,30.07,10.0,SE,6.9,-,N/A,,Mostly Cloudy,130,2012-12-22 18:51:00
12:51 PM,68.0,25.0,20,30.03,10.0,ESE,9.2,-,N/A,,Mostly Cloudy,110,2012-12-22 19:51:00
1:51 PM,70.0,27.0,20,30.01,10.0,South,6.9,-,N/A,,Mostly Cloudy,180,2012-12-22 20:51:00
2:51 PM,69.1,28.0,22,30.01,10.0,South,3.5,-,N/A,,Mostly Cloudy,170,2012-12-22 21:51:00
3:51 PM,69.1,26.1,20,30.01,10.0,WNW,5.8,-,N/A,,Mostly Cloudy,300,2012-12-22 22:51:00
4:51 PM,68.0,26.1,21,30.01,10.0,WNW,8.1,-,N/A,,Scattered Clouds,300,2012-12-22 23:51:00
5:51 PM,66.0,28.0,24,30.02,10.0,WNW,5.8,-,N/A,,Scattered Clouds,290,2012-12-23 00:51:00
6:51 PM,60.8,33.8,36,30.06,10.0,SW,3.5,-,N/A,,Scattered Clouds,220,2012-12-23 01:51:00
7:51 PM,60.1,32.0,35,30.04,10.0,Calm,Calm,-,N/A,,Scattered Clouds,0,2012-12-23 02:51:00
8:51 PM,60.1,30.0,32,30.06,10.0,WNW,3.5,-,N/A,,Partly Cloudy,290,2012-12-23 03:51:00
9:51 PM,55.0,35.1,47,30.07,10.0,Calm,Calm,-,N/A,,Clear,0,2012-12-23 04:51:00
10:51 PM,53.1,36.0,52,30.07,10.0,East,3.5,-,N/A,,Clear,100,2012-12-23 05:51:00
11:51 PM,51.1,37.9,61,30.07,10.0,Calm,Calm,-,N/A,,Clear,0,2012-12-23 06:51:00